Location: Bad Salzschlirf
(50.3750°N, 9.3000°E)
Time: 11:13:14
(UTC+02:00)

ISS - Visible Passes

Search period start: 31 March 2023 00:00
Search period end: 10 April 2023 00:00
Orbit: 414 x 424 km, 51.6° (Epoch: 31 March)

Date Brightness Start Highest point End Pass type
(mag) Time Alt. Az. Time Alt. Az. Time Alt. Az.
31 Mar -2.8 20:32:45 10° W 20:35:56 42° SSW 20:39:07 10° SE visible
01 Apr -1.2 21:22:59 10° WSW 21:24:52 14° SW 21:26:45 10° S visible
02 Apr -1.6 20:35:18 10° W 20:37:54 21° SW 20:40:28 10° SSE visible
